Location: Anton
(37.3520°N, 87.3947°W)
Time: 00:21:10
(UTC+00:00)

N. Korean satellite - Pass Details

Date: 01 December 2022
Orbit: 407 x 442 km, 97.3° (Epoch: 05 February)

Event Time Altitude Azimuth Distance (km) Brightness Sun altitude
Rises 10:06:03 0° 35° (NE) 2,516 10.6 -31.0°
Reaches altitude 10° 10:09:05 10° 64° (ENE) 1,625 9.9 -30.4°
Maximum altitude 10:10:45 13° 93° (E) 1,446 9.8 -30.1°
Drops below altitude 10° 10:12:23 10° 121° (ESE) 1,607 9.9 -29.8°
Sets 10:15:21 0° 151° (SSE) 2,461 10.6 -29.2°
